| time (UTC) | temp F | wind direction | speed knots | gust knots | rain 1hr in | rain 24hr in | rain mn in | humidity % | barometer mb |
| 20260504224028 | 76 | 120 | 4.3 | 5.2 | 0.00 | 0.00 | 0.00 | 58 | 1017.4 |
| 20260504223525 | 77 | 90 | 0.9 | 5.2 | 0.00 | 0.00 | 0.00 | 58 | 1017.2 |
| 20260504223021 | 76 | 114 | 4.3 | 9.6 | 0.00 | 0.00 | 0.00 | 58 | 1017.8 |
| 20260504222518 | 77 | 81 | 1.7 | 4.3 | 0.00 | 0.00 | 0.00 | 57 | 1017.3 |
| 20260504222015 | 78 | 90 | 1.7 | 5.2 | 0.00 | 0.00 | 0.00 | 57 | 1017.4 |
| 20260504221512 | 79 | 94 | 2.6 | 4.3 | 0.00 | 0.00 | 0.00 | 56 | 1017.7 |
| 20260504221009 | 80 | 142 | 5.2 | 5.2 | 0.00 | 0.00 | 0.00 | 54 | 1017.5 |
| 20260504220506 | 78 | 124 | 1.7 | 3.5 | 0.00 | 0.00 | 0.00 | 56 | 1017.5 |
| 20260504220003 | 78 | 49 | 2.6 | 6.1 | 0.00 | 0.00 | 0.00 | 57 | 1017.5 |
| 20260504215459 | 77 | 90 | 1.7 | 3.5 | 0.00 | 0.00 | 0.00 | 59 | 1017.4 |
| 20260504214956 | 78 | 78 | 3.5 | 4.3 | 0.00 | 0.00 | 0.00 | 56 | 1017.5 |
| 20260504214452 | 80 | 66 | 3.5 | 5.2 | 0.00 | 0.00 | 0.00 | 54 | 1017.5 |
| 20260504213949 | 79 | 98 | 2.6 | 4.3 | 0.00 | 0.00 | 0.00 | 57 | 1017.4 |
| 20260504213445 | 80 | 105 | 2.6 | 5.2 | 0.00 | 0.00 | 0.00 | 55 | 1017.5 |
| 20260504212943 | 81 | 99 | 1.7 | 3.5 | 0.00 | 0.00 | 0.00 | 54 | 1017.7 |
| 20260504212438 | 79 | 133 | 4.3 | 5.2 | 0.00 | 0.00 | 0.00 | 56 | 1017.7 |
| 20260504211936 | 78 | 70 | 3.5 | 5.2 | 0.00 | 0.00 | 0.00 | 55 | 1017.9 |
| 20260504211432 | 77 | 119 | 1.7 | 7.8 | 0.00 | 0.00 | 0.00 | 57 | 1017.6 |
| 20260504210930 | 77 | 133 | 2.6 | 5.2 | 0.00 | 0.00 | 0.00 | 55 | 1017.8 |
| 20260504210426 | 79 | 63 | 0.9 | 7.8 | 0.00 | 0.00 | 0.00 | 54 | 1017.6 |
| 20260504205924 | 76 | 140 | 2.6 | 7.0 | 0.00 | 0.00 | 0.00 | 56 | 1017.9 |
| 20260504205421 | 77 | 139 | 1.7 | 6.1 | 0.00 | 0.00 | 0.00 | 55 | 1018.0 |
| 20260504204919 | 76 | 106 | 0.0 | 6.1 | 0.00 | 0.00 | 0.00 | 56 | 1017.9 |
| 20260504204417 | 77 | 90 | 2.6 | 8.7 | 0.00 | 0.00 | 0.00 | 55 | 1017.9 |
| 20260504203917 | 78 | 65 | 6.1 | 6.1 | 0.00 | 0.00 | 0.00 | 53 | 1017.9 |
| 20260504203414 | 76 | 101 | 2.6 | 7.8 | 0.00 | 0.00 | 0.00 | 54 | 1018.0 |
| 20260504202909 | 78 | 90 | 3.5 | 6.1 | 0.00 | 0.00 | 0.00 | 52 | 1018.1 |
| 20260504202406 | 77 | 144 | 2.6 | 5.2 | 0.00 | 0.00 | 0.00 | 53 | 1017.7 |
| 20260504201903 | 78 | 82 | 2.6 | 7.0 | 0.00 | 0.00 | 0.00 | 53 | 1017.9 |
| 20260504201400 | 78 | 84 | 2.6 | 6.1 | 0.00 | 0.00 | 0.00 | 52 | 1018.2 |
| 20260504200857 | 79 | 90 | 1.7 | 6.1 | 0.00 | 0.00 | 0.00 | 51 | 1018.2 |
| 20260504200354 | 80 | 76 | 6.1 | 7.0 | 0.00 | 0.00 | 0.00 | 50 | 1018.0 |
| 20260504195851 | 79 | 68 | 1.7 | 5.2 | 0.00 | 0.00 | 0.00 | 48 | 1018.2 |
| 20260504195346 | 79 | 61 | 2.6 | 7.0 | 0.00 | 0.00 | 0.00 | 50 | 1018.1 |
| 20260504194843 | 80 | 109 | 2.6 | 8.7 | 0.00 | 0.00 | 0.00 | 49 | 1018.0 |
| 20260504194339 | 79 | 80 | 3.5 | 6.1 | 0.00 | 0.00 | 0.00 | 49 | 1018.1 |
| 20260504193835 | 80 | 80 | 3.5 | 9.6 | 0.00 | 0.00 | 0.00 | 48 | 1018.1 |
| 20260504193333 | 79 | 68 | 3.5 | 8.7 | 0.00 | 0.00 | 0.00 | 49 | 1018.3 |
| 20260504192831 | 80 | 67 | 2.6 | 7.8 | 0.00 | 0.00 | 0.00 | 48 | 1018.5 |
| 20260504192329 | 80 | 54 | 5.2 | 7.0 | 0.00 | 0.00 | 0.00 | 47 | 1018.3 |
| 20260504191827 | 80 | 64 | 3.5 | 5.2 | 0.00 | 0.00 | 0.00 | 46 | 1018.7 |
| 20260504191324 | 80 | 74 | 2.6 | 9.6 | 0.00 | 0.00 | 0.00 | 47 | 1018.5 |
| 20260504190820 | 82 | 62 | 7.8 | 7.8 | 0.00 | 0.00 | 0.00 | 46 | 1018.5 |
| 20260504190316 | 81 | 69 | 3.5 | 5.2 | 0.00 | 0.00 | 0.00 | 47 | 1018.4 |
| 20260504185813 | 80 | 109 | 0.9 | 7.0 | 0.00 | 0.00 | 0.00 | 48 | 1018.8 |
| 20260504185310 | 80 | 74 | 7.8 | 7.8 | 0.00 | 0.00 | 0.00 | 46 | 1018.8 |
| 20260504184806 | 80 | 71 | 2.6 | 6.1 | 0.00 | 0.00 | 0.00 | 44 | 1018.6 |
| 20260504184302 | 80 | 62 | 3.5 | 6.1 | 0.00 | 0.00 | 0.00 | 45 | 1018.8 |
| 20260504183757 | 80 | 86 | 2.6 | 8.7 | 0.00 | 0.00 | 0.00 | 47 | 1019.1 |
| 20260504183254 | 79 | 72 | 3.5 | 5.2 | 0.00 | 0.00 | 0.00 | 43 | 1019.1 |
| 20260504182753 | 79 | 72 | 1.7 | 9.6 | 0.00 | 0.00 | 0.00 | 48 | 1019.2 |
| 20260504182249 | 80 | 65 | 3.5 | 5.2 | 0.00 | 0.00 | 0.00 | 44 | 1019.2 |
| 20260504181747 | 80 | 79 | 4.3 | 7.8 | 0.00 | 0.00 | 0.00 | 43 | 1019.1 |
| 20260504181244 | 79 | 84 | 1.7 | 6.1 | 0.00 | 0.00 | 0.00 | 43 | 1019.4 |
| 20260504180743 | 78 | 73 | 5.2 | 7.8 | 0.00 | 0.00 | 0.00 | 47 | 1019.2 |
| 20260504180242 | 79 | 59 | 2.6 | 6.1 | 0.00 | 0.00 | 0.00 | 45 | 1019.1 |
| 20260504175739 | 78 | 36 | 6.1 | 9.6 | 0.00 | 0.00 | 0.00 | 43 | 1019.2 |
| 20260504175235 | 79 | 65 | 1.7 | 5.2 | 0.00 | 0.00 | 0.00 | 44 | 1019.4 |
| 20260504174733 | 79 | 85 | 1.7 | 8.7 | 0.00 | 0.00 | 0.00 | 45 | 1019.4 |
| 20260504174231 | 80 | 41 | 5.2 | 5.2 | 0.00 | 0.00 | 0.00 | 42 | 1019.2 |
| 20260504173727 | 78 | 82 | 4.3 | 7.0 | 0.00 | 0.00 | 0.00 | 44 | 1019.4 |
| 20260504173224 | 78 | 75 | 2.6 | 7.8 | 0.00 | 0.00 | 0.00 | 44 | 1019.6 |
| 20260504172721 | 77 | 64 | 4.3 | 7.8 | 0.00 | 0.00 | 0.00 | 44 | 1019.5 |
| 20260504172217 | 77 | 49 | 4.3 | 7.0 | 0.00 | 0.00 | 0.00 | 43 | 1019.9 |
| 20260504171714 | 77 | 64 | 0.0 | 5.2 | 0.00 | 0.00 | 0.00 | 44 | 1019.6 |
| 20260504171211 | 78 | 66 | 4.3 | 4.3 | 0.00 | 0.00 | 0.00 | 43 | 1019.8 |
| 20260504170708 | 76 | 54 | 6.1 | 7.8 | 0.00 | 0.00 | 0.00 | 43 | 1020.0 |
| 20260504170206 | 77 | 35 | 4.3 | 7.8 | 0.00 | 0.00 | 0.00 | 40 | 1020.0 |
| 20260504160124 | 77 | 52 | 2.6 | 5.2 | 0.00 | 0.00 | 0.00 | 39 | 1020.3 |
| 20260504151051 | 74 | 60 | 1.7 | 4.3 | 0.00 | 0.00 | 0.00 | 44 | 1020.4 |
| 20260504150548 | 75 | 90 | 0.9 | 4.3 | 0.00 | 0.00 | 0.00 | 45 | 1020.1 |
| 20260504141014 | 72 | 82 | 0.9 | 1.7 | 0.00 | 0.00 | 0.00 | 48 | 1020.5 |
| 20260504140511 | 72 | 83 | 0.0 | 1.7 | 0.00 | 0.00 | 0.00 | 48 | 1020.4 |
| 20260504130435 | 68 | 90 | 0.0 | 1.7 | 0.00 | 0.00 | 0.00 | 67 | 1020.5 |
| 20260504110322 | 56 | 99 | 0.0 | 0.0 | 0.00 | 0.00 | 0.00 | 92 | 1019.5 |
| 20260504100240 | 57 | 90 | 0.0 | 0.0 | 0.00 | 0.00 | 0.00 | 92 | 1019.0 |
| 20260504081633 | 58 | 90 | 0.9 | 1.7 | 0.00 | 0.00 | 0.00 | 90 | 1019.3 |
| 20260504081129 | 57 | 66 | 0.0 | 0.0 | 0.00 | 0.00 | 0.00 | 90 | 1019.6 |
| 20260504080626 | 58 | 66 | 0.0 | 1.7 | 0.00 | 0.00 | 0.00 | 90 | 1019.4 |
| 20260504080122 | 57 | 74 | 0.0 | 0.0 | 0.00 | 0.00 | 0.00 | 89 | 1019.4 |
| 20260504050439 | 60 | 106 | 0.9 | 0.9 | 0.00 | 0.00 | 0.00 | 85 | 1020.5 |
| 20260504045936 | 60 | 106 | 0.0 | 0.9 | 0.00 | 0.00 | 0.00 | 85 | 1020.4 |
| 20260504045432 | 60 | 90 | 0.0 | 1.7 | 0.00 | 0.00 | 0.00 | 85 | 1020.6 |
| 20260504044928 | 60 | 105 | 0.9 | 0.9 | 0.00 | 0.00 | 0.00 | 85 | 1020.6 |
| 20260504044426 | 60 | 114 | 0.9 | 0.9 | 0.00 | 0.00 | 0.00 | 84 | 1020.7 |
| 20260504043923 | 60 | 106 | 0.9 | 0.9 | 0.00 | 0.00 | 0.00 | 84 | 1020.5 |
| 20260504043420 | 60 | 90 | 0.0 | 0.9 | 0.00 | 0.00 | 0.00 | 84 | 1020.5 |
| 20260504042917 | 60 | 99 | 0.0 | 0.9 | 0.00 | 0.00 | 0.00 | 84 | 1020.5 |
| 20260504042414 | 61 | 106 | 0.0 | 0.9 | 0.00 | 0.00 | 0.00 | 84 | 1020.4 |
| 20260504041910 | 61 | 90 | 0.0 | 0.0 | 0.00 | 0.00 | 0.00 | 83 | 1020.5 |
| 20260504041406 | 61 | 90 | 0.0 | 0.0 | 0.00 | 0.00 | 0.00 | 83 | 1020.6 |
| 20260504040902 | 61 | 90 | 0.0 | 0.0 | 0.00 | 0.00 | 0.00 | 83 | 1020.2 |
| 20260504040400 | 61 | 99 | 0.0 | 0.0 | 0.00 | 0.00 | 0.00 | 82 | 1020.3 |
| 20260504035856 | 61 | 99 | 0.0 | 0.0 | 0.00 | 0.00 | 0.00 | 82 | 1020.4 |
| 20260504035354 | 61 | 99 | 0.0 | 0.0 | 0.00 | 0.00 | 0.00 | 82 | 1020.6 |
| 20260504034850 | 62 | 99 | 0.0 | 0.9 | 0.00 | 0.00 | 0.00 | 82 | 1020.6 |
| 20260504034347 | 62 | 99 | 0.0 | 0.0 | 0.00 | 0.00 | 0.00 | 81 | 1020.5 |
| 20260504033844 | 62 | 99 | 0.0 | 0.0 | 0.00 | 0.00 | 0.00 | 81 | 1020.7 |
| 20260504033343 | 62 | 99 | 0.0 | 1.7 | 0.00 | 0.00 | 0.00 | 81 | 1020.6 |
| 20260504032839 | 62 | 99 | 0.0 | 0.9 | 0.00 | 0.00 | 0.00 | 81 | 1020.6 |
| 20260504032336 | 62 | 99 | 0.0 | 1.7 | 0.00 | 0.00 | 0.00 | 81 | 1020.5 |
| 20260504031833 | 62 | 99 | 0.0 | 0.9 | 0.00 | 0.00 | 0.00 | 80 | 1020.5 |
| 20260504031330 | 62 | 99 | 0.0 | 0.0 | 0.00 | 0.00 | 0.00 | 80 | 1020.5 |
| 20260504030826 | 62 | 90 | 0.0 | 0.0 | 0.00 | 0.00 | 0.00 | 79 | 1020.4 |
| 20260504030324 | 63 | 99 | 0.0 | 1.7 | 0.00 | 0.00 | 0.00 | 79 | 1020.3 |
| 20260504025820 | 63 | 98 | 0.0 | 0.9 | 0.00 | 0.00 | 0.00 | 78 | 1020.7 |
| 20260504025317 | 63 | 90 | 0.0 | 0.0 | 0.00 | 0.00 | 0.00 | 78 | 1020.6 |
| 20260504024813 | 64 | 99 | 0.0 | 0.9 | 0.00 | 0.00 | 0.00 | 78 | 1020.8 |
| 20260504024310 | 64 | 106 | 0.0 | 0.9 | 0.00 | 0.00 | 0.00 | 78 | 1020.5 |
| 20260504023807 | 64 | 105 | 0.9 | 0.9 | 0.00 | 0.00 | 0.00 | 78 | 1020.4 |
| 20260504023303 | 64 | 99 | 0.0 | 0.9 | 0.00 | 0.00 | 0.00 | 78 | 1020.7 |
| 20260504022759 | 64 | 106 | 0.0 | 1.7 | 0.00 | 0.00 | 0.00 | 77 | 1020.5 |
| 20260504022255 | 64 | 114 | 0.9 | 0.9 | 0.00 | 0.00 | 0.00 | 77 | 1020.2 |
| 20260504021752 | 64 | 106 | 0.0 | 0.9 | 0.00 | 0.00 | 0.00 | 77 | 1020.3 |
| 20260504021250 | 64 | 99 | 0.0 | 0.0 | 0.00 | 0.00 | 0.00 | 76 | 1020.2 |
| 20260504020747 | 64 | 109 | 0.0 | 0.9 | 0.00 | 0.00 | 0.00 | 76 | 1020.3 |
| 20260504020243 | 65 | 99 | 0.0 | 0.9 | 0.00 | 0.00 | 0.00 | 75 | 1020.2 |
| 20260504015739 | 65 | 145 | 0.0 | 1.7 | 0.00 | 0.00 | 0.00 | 75 | 1019.8 |
| 20260504015236 | 65 | 117 | 0.0 | 0.9 | 0.00 | 0.00 | 0.00 | 75 | 1019.9 |
| 20260504014732 | 65 | 180 | 0.0 | 2.6 | 0.00 | 0.00 | 0.00 | 75 | 1019.8 |
| 20260504014228 | 65 | 106 | 1.7 | 1.7 | 0.00 | 0.00 | 0.00 | 74 | 1019.8 |
| 20260504013726 | 65 | 105 | 0.0 | 1.7 | 0.00 | 0.00 | 0.00 | 74 | 1019.8 |
| 20260504013224 | 65 | 99 | 0.0 | 1.7 | 0.00 | 0.00 | 0.00 | 74 | 1019.6 |
| 20260504012720 | 65 | 114 | 1.7 | 1.7 | 0.00 | 0.00 | 0.00 | 74 | 1019.7 |
| 20260504012218 | 66 | 139 | 0.0 | 1.7 | 0.00 | 0.00 | 0.00 | 74 | 1019.4 |
| 20260504011715 | 66 | 112 | 1.7 | 1.7 | 0.00 | 0.00 | 0.00 | 74 | 1019.4 |
| 20260504011211 | 66 | 126 | 0.0 | 1.7 | 0.00 | 0.00 | 0.00 | 73 | 1019.5 |
| 20260504010708 | 66 | 111 | 0.9 | 1.7 | 0.00 | 0.00 | 0.00 | 73 | 1019.5 |
| 20260504010203 | 66 | 102 | 0.0 | 2.6 | 0.00 | 0.00 | 0.00 | 73 | 1019.4 |
| 20260504005700 | 66 | 81 | 1.7 | 1.7 | 0.00 | 0.00 | 0.00 | 73 | 1019.4 |
| 20260504005157 | 66 | 126 | 0.9 | 1.7 | 0.00 | 0.00 | 0.00 | 73 | 1019.2 |
| 20260504004655 | 66 | 82 | 0.0 | 2.6 | 0.00 | 0.00 | 0.00 | 73 | 1019.1 |
| 20260504004152 | 66 | 114 | 0.9 | 0.9 | 0.00 | 0.00 | 0.00 | 72 | 1018.8 |
| 20260504003648 | 66 | 85 | 1.7 | 1.7 | 0.00 | 0.00 | 0.00 | 72 | 1019.1 |
| 20260504003145 | 67 | 111 | 0.0 | 1.7 | 0.00 | 0.00 | 0.00 | 71 | 1019.2 |
| 20260504002641 | 67 | 99 | 0.0 | 1.7 | 0.00 | 0.00 | 0.00 | 71 | 1019.2 |
| 20260504002139 | 68 | 99 | 0.0 | 1.7 | 0.00 | 0.00 | 0.00 | 70 | 1019.0 |
| 20260504001637 | 68 | 109 | 0.0 | 2.6 | 0.00 | 0.00 | 0.00 | 70 | 1019.3 |
| 20260504001132 | 68 | 120 | 0.0 | 1.7 | 0.00 | 0.00 | 0.00 | 69 | 1019.1 |
| 20260504000630 | 68 | 140 | 1.7 | 1.7 | 0.00 | 0.00 | 0.00 | 68 | 1019.0 |
| 20260504000127 | 68 | 120 | 0.9 | 2.6 | 0.00 | 0.00 | 0.00 | 66 | 1018.9 |
| 20260503235625 | 69 | 109 | 1.7 | 3.5 | 0.00 | 0.00 | 0.00 | 65 | 1019.0 |
| 20260503235122 | 69 | 157 | 2.6 | 2.6 | 0.00 | 0.00 | 0.00 | 63 | 1019.2 |
| 20260503234620 | 70 | 117 | 2.6 | 2.6 | 0.00 | 0.00 | 0.00 | 61 | 1019.0 |
| 20260503234118 | 71 | 132 | 1.7 | 2.6 | 0.00 | 0.00 | 0.00 | 60 | 1019.2 |
| 20260503233615 | 71 | 95 | 1.7 | 3.5 | 0.00 | 0.00 | 0.00 | 58 | 1019.1 |
| 20260503233110 | 71 | 115 | 1.7 | 2.6 | 0.00 | 0.00 | 0.00 | 58 | 1019.1 |
| 20260503232607 | 71 | 95 | 0.0 | 3.5 | 0.00 | 0.00 | 0.00 | 57 | 1019.2 |
| 20260503232105 | 71 | 95 | 0.0 | 2.6 | 0.00 | 0.00 | 0.00 | 56 | 1019.2 |
| 20260503231603 | 71 | 101 | 1.7 | 3.5 | 0.00 | 0.00 | 0.00 | 55 | 1019.0 |
| 20260503231059 | 71 | 90 | 1.7 | 5.2 | 0.00 | 0.00 | 0.00 | 53 | 1019.1 |
| 20260503230555 | 72 | 78 | 2.6 | 3.5 | 0.00 | 0.00 | 0.00 | 51 | 1018.9 |
| 20260503230053 | 73 | 103 | 1.7 | 2.6 | 0.00 | 0.00 | 0.00 | 49 | 1019.1 |
| 20260503225550 | 73 | 165 | 0.0 | 2.6 | 0.00 | 0.00 | 0.00 | 49 | 1018.8 |
| 20260503225045 | 73 | 96 | 0.9 | 2.6 | 0.00 | 0.00 | 0.00 | 50 | 1019.0 |
| 20260503224543 | 72 | 86 | 2.6 | 3.5 | 0.00 | 0.00 | 0.00 | 50 | 1019.2 |